Location: Bruderhein
(53.8035°N, 112.9265°W)
Time: 14:16:04
(UTC+00:00)

deb Delta 139 - Pass Details

Date: 10 December 2023
Orbit: 731 x 794 km, 98.6° (Epoch: 01 March)

Event Time Altitude Azimuth Distance (km) Brightness Sun altitude
Rises 00:31:40 0° 140° (SE) 3,244 ? -11.0°
Reaches altitude 10° 00:34:04 10° 134° (SE) 2,311 ? -11.3°
Maximum altitude 00:38:51 43° 64° (ENE) 1,068 ? -11.9°
Drops below altitude 10° 00:43:35 10° 354° (N) 2,287 ? -12.6°
Sets 00:45:57 0° 348° (NNW) 3,206 ? -12.9°
